[[{"header":{"parameterUnit":"m.s-1","parameterCategory":1,"la1":30.2991,"la2":30.254,"lo1":-89.0895,"lo2":-89.0444,"dy":0.0017,"dx":0.0017,"nx":28,"ny":28,"refTime":"2024-10-02T09:00:00:Z","depth":0,"parameterNumber":2,"parameterNumberName":"U-component_of_WINDS"},"data":[0,0,0,0,0,0,0,0,0,0,0,0,0,0,0,0,0,0,0,0,0,0,0,0,0,0,0,0,0,0,0,0,0,0,0,0,0,0,0,0,0,0,0,0,0,0,0,0,0,0,0,0,0,0,0,0,0,0,-0.8128,-0.8126,0,-0.8009,-0.8008,-0.8006,-0.795,-0.795,-0.795,-0.795,-0.7829,-0.7826,-0.7823,0,0,0,0,0,0,0,0,0,0,0,0,0,-0.8309,-0.8306,-0.8128,-0.8126,-0.8125,-0.8009,-0.8007,-0.8006,-0.795,-0.795,-0.795,-0.795,-0.783,-0.7827,-0.7823,0,0,0,0,0,0,0,0,0,0,0,0,0,-0.8214,-0.8305,-0.8128,-0.8083,-0.8077,-0.8009,-0.8007,-0.8005,-0.795,-0.795,-0.795,-0.795,-0.7832,-0.7827,-0.7822,-0.779,0,0,-0.7807,-0.7805,0,0,0,0,0,0,0,0,-0.822,-0.8208,-0.8091,-0.8086,-0.808,-0.7994,-0.8027,-0.7933,-0.795,-0.7998,-0.795,-0.795,-0.7884,-0.7875,-0.7853,-0.7785,-0.7779,-0.7807,-0.7804,-0.7802,-0.78,0,0,0,0,0,0,0,-0.8226,-0.8212,-0.8081,-0.8089,-0.8082,-0.8069,-0.8056,-0.8009,-0.7942,-0.7994,-0.799,-0.7976,-0.7881,-0.7857,-0.7849,-0.7778,-0.7807,-0.7803,-0.7799,-0.7798,-0.7681,-0.7681,0,0,0,0,0,0,-0.824,-0.8218,-0.8084,-0.8077,-0.8151,-0.8066,-0.8051,-0.8022,-0.7943,-0.7931,-0.7976,-0.7974,-0.7866,-0.7855,-0.7845,-0.7804,-0.7802,-0.7797,-0.7794,-0.7681,-0.7681,-0.7681,0,0,0,0,0,0,-0.8244,-0.8228,-0.8089,-0.8146,-0.8128,-0.8063,-0.803,-0.8019,-0.7995,-0.7929,-0.7917,-0.7964,-0.7865,-0.7852,-0.7805,-0.7799,-0.7795,-0.779,-0.7682,-0.7681,-0.7681,-0.7722,0,0,0,0,0,0,-0.8249,-0.823,-0.8217,-0.8147,-0.8125,-0.805,-0.803,-0.8017,-0.7987,-0.7983,-0.7915,-0.7903,-0.7864,-0.7813,-0.78,-0.7792,-0.7787,-0.7682,-0.7681,-0.7681,-0.7721,-0.7723,-0.7725,0,0,0,0,0,-0.8256,-0.8232,-0.8216,-0.82,-0.8106,-0.805,-0.8038,-0.7993,-0.7987,-0.7973,-0.7931,-0.7906,-0.7802,-0.7808,-0.7794,-0.7784,-0.7682,-0.7682,-0.7681,-0.772,-0.7722,-0.7725,0,0,0,0,0,0,-0.8303,-0.8222,-0.8203,-0.8156,-0.8111,-0.8041,-0.8022,-0.7997,-0.7952,-0.795,-0.7897,-0.7883,-0.7841,-0.7808,-0.7816,-0.7751,-0.774,-0.7737,-0.7774,-0.7776,-0.7778,-0.7787,-0.7783,0,0,0,0,0,-0.8308,-0.8268,-0.82,-0.8165,-0.8143,-0.8087,-0.8061,-0.803,-0.7981,-0.7961,-0.7916,-0.787,-0.7827,-0.78,-0.7756,-0.7716,-0.7702,-0.7703,-0.7705,-0.7707,-0.7705,-0.7684,-0.7684,-0.768,-0.768,-0.768,0,0,-0.8317,-0.8268,-0.8246,-0.8173,-0.8134,-0.8096,-0.8071,-0.803,-0.8001,-0.7955,-0.7908,-0.7874,-0.7819,-0.7776,-0.7755,-0.7747,-0.7703,-0.7707,-0.7709,-0.7705,-0.7683,-0.7684,-0.7684,-0.768,-0.768,-0.768,0,0,-0.8315,-0.8273,-0.824,-0.8202,-0.8144,-0.8107,-0.81,-0.8034,-0.801,-0.7962,-0.7928,-0.7893,-0.782,-0.7783,-0.7755,-0.7742,-0.7718,-0.773,-0.7741,-0.7721,-0.7721,-0.7721,-0.7718,-0.7718,-0.7728,-0.7728,-0.7728,0,-0.8334,-0.8273,-0.8227,-0.8189,-0.8159,-0.8116,-0.8083,-0.8049,-0.798,-0.7961,-0.7954,-0.7863,-0.7823,-0.7772,-0.7769,-0.7747,-0.7738,-0.7737,-0.7725,-0.7724,-0.7724,-0.7721,-0.7719,-0.773,-0.773,-0.773,-0.7729,0,-0.83,-0.826,-0.824,-0.8175,-0.8143,-0.8108,-0.8058,-0.8031,-0.8005,-0.7969,-0.7923,-0.7874,-0.7821,-0.7807,-0.778,-0.7753,-0.7751,-0.7735,-0.7722,-0.7727,-0.7723,-0.7721,-0.7733,-0.7732,-0.7732,-0.7731,0,0,-0.8322,-0.8234,-0.8227,-0.8198,-0.8133,-0.81,-0.8065,-0.8014,-0.7993,-0.7948,-0.7917,-0.7858,-0.7844,-0.7812,-0.7782,-0.7764,-0.776,-0.7751,-0.7749,-0.7755,-0.7729,-0.7742,-0.7741,-0.7744,-0.7743,-0.7743,-0.7734,0,-0.8311,-0.8244,-0.8202,-0.8153,-0.8116,-0.8077,-0.8046,-0.8003,-0.797,-0.7935,-0.7899,-0.7858,-0.7842,-0.7823,-0.7804,-0.7765,-0.7754,-0.7765,-0.7717,-0.7715,-0.7732,-0.7739,-0.7751,-0.7745,-0.7732,-0.7732,-0.7732,0,-0.8288,-0.8244,-0.8192,-0.8133,-0.8115,-0.8088,-0.804,-0.8006,-0.7958,-0.7935,-0.7902,-0.7871,-0.7834,-0.7826,-0.7775,-0.7783,-0.7762,-0.774,-0.7739,-0.7732,-0.7724,-0.7733,-0.7742,-0.7741,-0.7729,-0.7729,-0.7729,0,-0.831,-0.8239,-0.8198,-0.8175,-0.8104,-0.8087,-0.8057,-0.8009,-0.7982,-0.794,-0.7922,-0.7877,-0.7852,-0.7818,-0.7777,-0.7774,-0.7732,-0.7719,-0.7713,-0.7714,-0.7705,-0.7706,-0.7711,-0.7691,-0.7691,-0.7691,-0.7691,0,-0.8302,-0.8272,-0.8208,-0.8183,-0.8148,-0.8102,-0.807,-0.8037,-0.7996,-0.7965,-0.7929,-0.7901,-0.7848,-0.7815,-0.7783,-0.7747,-0.7736,-0.7718,-0.771,-0.7721,-0.7724,-0.7706,-0.7706,-0.7691,-0.7691,-0.7691,-0.7691,0,-0.8321,-0.8276,-0.823,-0.8168,-0.8152,-0.813,-0.8077,-0.8053,-0.8019,-0.7981,-0.797,-0.7917,-0.7876,-0.7832,-0.7776,-0.7755,-0.7722,-0.771,-0.7738,-0.7733,-0.773,-0.7731,-0.7724,-0.7721,-0.7703,-0.7703,-0.7703,0,-0.8318,-0.8294,-0.823,-0.8207,-0.8179,-0.8142,-0.8114,-0.8069,-0.8042,-0.7988,-0.7971,-0.7927,-0.789,-0.7827,-0.7784,-0.7743,-0.773,-0.773,-0.7723,-0.7736,-0.7731,-0.7733,-0.7732,-0.7732,-0.7733,-0.7733,-0.7733,0,-0.8319,-0.8299,-0.8261,-0.8216,-0.8184,-0.8147,-0.8108,-0.8091,-0.8039,-0.8011,-0.7969,-0.7941,-0.7885,-0.7843,-0.7796,-0.7767,-0.7742,-0.7736,-0.7733,-0.7744,-0.7762,-0.7754,-0.7744,-0.7736,-0.7736,-0.7736,-0.7736,-0.7735,-0.8327,-0.8305,-0.8258,-0.8217,-0.8183,-0.8149,-0.8123,-0.8087,-0.8051,-0.8002,-0.7978,-0.7937,-0.7893,-0.7828,-0.78,-0.7768,-0.776,-0.7755,-0.7754,-0.7753,-0.7757,-0.7767,-0.7759,-0.7759,-0.7759,-0.7759,-0.7759,0,-0.8328,-0.8296,-0.8259,-0.8206,-0.8175,-0.8155,-0.8112,-0.8087,-0.8051,-0.8012,-0.7977,-0.793,-0.789,-0.7846,-0.7804,-0.7787,-0.7775,-0.7778,-0.7778,-0.7773,-0.7765,-0.7773,-0.7788,-0.7788,-0.7788,-0.7788,-0.7788,-0.7788,-0.8324,-0.8286,-0.8261,-0.8207,-0.8175,-0.8134,-0.8112,-0.808,-0.8049,-0.7999,-0.7965,-0.7937,-0.7896,-0.7852,-0.7815,-0.7803,-0.779,-0.7796,-0.7781,-0.7775,-0.7773,-0.777,-0.7777,-0.7794,-0.7794,-0.7791,-0.7791,-0.7791]},{"header":{"parameterUnit":"m.s-1","parameterCategory":1,"la1":30.2991,"la2":30.254,"lo1":-89.0895,"lo2":-89.0444,"dy":0.0017,"dx":0.0017,"nx":28,"ny":28,"refTime":"2024-10-02T09:00:00:Z","depth":0,"parameterNumber":3,"parameterNumberName":"V-component_of_WINDS"},"data":[0,0,0,0,0,0,0,0,0,0,0,0,0,0,0,0,0,0,0,0,0,0,0,0,0,0,0,0,0,0,0,0,0,0,0,0,0,0,0,0,0,0,0,0,0,0,0,0,0,0,0,0,0,0,0,0,0,0,1.4215,1.4215,0,1.426,1.426,1.4261,1.4238,1.4237,1.4236,1.4235,1.4279,1.4282,1.4284,0,0,0,0,0,0,0,0,0,0,0,0,0,1.4106,1.4108,1.4215,1.4215,1.4216,1.426,1.426,1.4261,1.4238,1.4237,1.4236,1.4234,1.4279,1.4281,1.4284,0,0,0,0,0,0,0,0,0,0,0,0,0,1.4152,1.4108,1.4215,1.421,1.421,1.4259,1.426,1.4261,1.4239,1.4237,1.4235,1.4234,1.4278,1.4281,1.4284,1.4341,0,0,1.4295,1.4296,0,0,0,0,0,0,0,0,1.4149,1.4156,1.421,1.421,1.421,1.4242,1.4238,1.4288,1.4239,1.4228,1.4235,1.4233,1.4268,1.4272,1.4284,1.4343,1.4345,1.4295,1.4297,1.4299,1.43,0,0,0,0,0,0,0,1.4146,1.4154,1.4232,1.4211,1.4211,1.4204,1.4209,1.4247,1.4257,1.4229,1.4227,1.4233,1.4268,1.4281,1.4285,1.4345,1.4295,1.4298,1.43,1.4302,1.4447,1.4449,0,0,0,0,0,0,1.4144,1.4151,1.4231,1.4234,1.4175,1.4208,1.4213,1.4233,1.4257,1.4259,1.4234,1.4232,1.4276,1.4281,1.4287,1.435,1.4299,1.4302,1.4304,1.4445,1.4447,1.4449,0,0,0,0,0,0,1.4141,1.4151,1.4229,1.4192,1.4202,1.4212,1.4235,1.4235,1.4248,1.4261,1.4262,1.4246,1.4275,1.4282,1.4326,1.4352,1.4303,1.4307,1.4443,1.4446,1.4448,1.4481,0,0,0,0,0,0,1.4138,1.415,1.4173,1.4193,1.4204,1.4269,1.4236,1.4237,1.4255,1.4251,1.4273,1.4274,1.4274,1.4321,1.433,1.4356,1.4309,1.4441,1.4444,1.4448,1.4477,1.4484,1.449,0,0,0,0,0,1.4135,1.4181,1.4174,1.4184,1.4232,1.4271,1.4277,1.4276,1.4257,1.4278,1.4286,1.4274,1.4348,1.4326,1.4336,1.4363,1.4439,1.4443,1.4447,1.4474,1.4483,1.449,0,0,0,0,0,0,1.4164,1.4183,1.4176,1.4231,1.4249,1.4267,1.4294,1.4286,1.431,1.4306,1.4304,1.4308,1.4354,1.4363,1.4338,1.4416,1.4391,1.4397,1.4408,1.4416,1.4422,1.4417,1.4312,0,0,0,0,0,1.4177,1.4207,1.4222,1.4269,1.4278,1.4285,1.4302,1.4299,1.4318,1.4326,1.4337,1.4355,1.4382,1.44,1.4426,1.4479,1.4481,1.4502,1.4509,1.4514,1.4518,1.4543,1.4551,1.4463,1.4463,1.4463,0,0,1.4203,1.4218,1.4237,1.4275,1.4289,1.4318,1.4292,1.4326,1.4347,1.4331,1.4372,1.4381,1.4401,1.4449,1.4471,1.4458,1.4543,1.4519,1.4523,1.4524,1.4548,1.4556,1.4563,1.4466,1.4465,1.4465,0,0,1.4266,1.4282,1.432,1.4334,1.4355,1.4359,1.4368,1.4387,1.4392,1.4434,1.4421,1.4446,1.4494,1.4507,1.4521,1.4585,1.4574,1.4594,1.4626,1.465,1.4657,1.4663,1.4682,1.469,1.4599,1.4599,1.4599,0,1.4296,1.4341,1.4341,1.4374,1.4389,1.4376,1.4413,1.4427,1.4456,1.4466,1.4452,1.4509,1.4522,1.4571,1.4586,1.4599,1.4606,1.4591,1.4656,1.4662,1.4668,1.4686,1.4694,1.4601,1.4601,1.4601,1.4601,0,1.4375,1.4406,1.4434,1.4461,1.448,1.4515,1.4518,1.4537,1.4533,1.4537,1.4578,1.4593,1.462,1.4632,1.4629,1.4679,1.467,1.4657,1.463,1.4678,1.4695,1.4703,1.4604,1.4603,1.4603,1.4602,0,0,1.4457,1.4481,1.4491,1.4501,1.4523,1.4547,1.458,1.4606,1.4621,1.4641,1.4666,1.4706,1.4692,1.4707,1.4705,1.4727,1.4772,1.471,1.471,1.4718,1.4824,1.4832,1.484,1.4766,1.4767,1.4768,1.4821,0,1.4518,1.4577,1.4576,1.4629,1.4656,1.4643,1.4671,1.4687,1.4691,1.4714,1.4719,1.4745,1.4728,1.4736,1.4757,1.4762,1.4793,1.4759,1.4787,1.4788,1.4779,1.485,1.4859,1.4908,1.4828,1.483,1.483,0,1.4597,1.4618,1.4674,1.4688,1.4699,1.4725,1.4747,1.4769,1.4785,1.4787,1.4802,1.4796,1.4828,1.4803,1.4844,1.4821,1.4833,1.4837,1.4839,1.4839,1.481,1.4848,1.4925,1.4931,1.4842,1.4841,1.484,0,1.4646,1.4689,1.4726,1.4736,1.4755,1.4773,1.4781,1.4796,1.481,1.4829,1.4838,1.4861,1.4873,1.489,1.4889,1.4871,1.493,1.4906,1.493,1.4929,1.494,1.4939,1.5016,1.4954,1.4953,1.4953,1.4953,0,1.4712,1.4746,1.4748,1.4771,1.4807,1.4806,1.4841,1.4848,1.486,1.4883,1.4874,1.4895,1.4895,1.4916,1.4916,1.4948,1.4954,1.4955,1.4953,1.4954,1.4953,1.4959,1.4954,1.4955,1.4955,1.4954,1.4954,0,1.4772,1.4776,1.4815,1.4829,1.4833,1.4859,1.487,1.489,1.4894,1.4922,1.4929,1.4934,1.4958,1.496,1.4988,1.4988,1.5026,1.5023,1.502,1.5018,1.5041,1.5037,1.5121,1.5131,1.5065,1.5066,1.5067,0,1.4813,1.4838,1.4854,1.4868,1.4877,1.4901,1.4915,1.4914,1.4929,1.4947,1.4965,1.4988,1.5006,1.5045,1.505,1.5071,1.5066,1.5094,1.5069,1.5067,1.5062,1.5059,1.506,1.5098,1.5099,1.5099,1.51,0,1.4883,1.4882,1.4903,1.4924,1.4941,1.4957,1.4973,1.4985,1.4985,1.5002,1.5026,1.504,1.5067,1.5089,1.5109,1.5116,1.5107,1.5108,1.5114,1.5113,1.5108,1.5107,1.503,1.5105,1.5105,1.5104,1.5104,1.5104,1.4931,1.4951,1.4965,1.4987,1.4999,1.5012,1.5031,1.5037,1.5057,1.5079,1.5077,1.5103,1.5115,1.5141,1.515,1.5169,1.5159,1.5169,1.517,1.5172,1.5173,1.5108,1.5173,1.5173,1.5172,1.5172,1.5172,0,1.4997,1.5005,1.5026,1.5046,1.5064,1.5054,1.507,1.5084,1.5107,1.512,1.5138,1.5164,1.5184,1.5191,1.5211,1.5224,1.522,1.5229,1.5226,1.5227,1.5182,1.5173,1.5232,1.5232,1.5232,1.5232,1.5232,1.5232,1.5033,1.5066,1.5067,1.5104,1.5111,1.5136,1.5145,1.5157,1.5166,1.5196,1.5213,1.5217,1.5227,1.5246,1.5264,1.5265,1.5271,1.5281,1.5281,1.5237,1.5231,1.5225,1.5217,1.5284,1.5284,1.5324,1.5324,1.5325]}]]